Location: Hopkins Observatory
(42.6965°N, 73.1843°W)
Time: 19:12:35
(UTC-05:00)

Amateur Radio Satellites - All Passes

Search period start: 22 November 2017 18:42
Search period end: 23 November 2017 18:42
Location: Hopkins Observatory, 42.6965°N, 73.1843°W

Satellite Date Start Highest point End Downlink Frequencies (MHz)
Time Altitude Azimuth
AO-73 22 Nov 19:00:48 19:04:57 52° 74° (ENE) 19:09:03 145.935
CUBEBUG 2 22 Nov 19:07:08 19:11:20 36° 263° (W) 19:15:28 437.445
Oscar 11 22 Nov 19:15:19 19:19:28 50° 73° (ENE) 19:23:38 .
XW-2A 22 Nov 19:29:53 19:32:43 26° 264° (W) 19:35:34 145.665 - 145.685
FO-29 22 Nov 19:31:35 19:38:22 31° 91° (E) 19:44:44 435.910
NO-84 22 Nov 19:33:02 19:36:21 22° 20° (NNE) 19:39:42 435.350 FM
CUTE 1.7 + AOD 2 22 Nov 19:33:18 19:34:35 11° 271° (W) 19:35:52 437.475
STRAND 1 22 Nov 19:33:36 19:38:45 89° 118° (ESE) 19:43:51 437.568
RS-15 22 Nov 19:34:12 19:46:25 63° 311° (NW) 19:58:33 29.354- 29.394
nSIGHT-1 22 Nov 19:37:57 19:40:52 33° 139° (SE) 19:43:49 .
ZACube-1 22 Nov 19:47:03 19:51:09 42° 262° (W) 19:55:11 437.345
AAUSAT CUBESAT 2 22 Nov 20:00:06 20:03:06 19° 267° (W) 20:06:09 437.432
UWE-3 22 Nov 20:02:03 20:04:56 17° 268° (W) 20:07:48 435.000/436.395/437.385
HO-68 22 Nov 20:04:50 20:08:19 14° 273° (W) 20:11:48 435.675
DELFI C3 22 Nov 20:13:47 20:17:33 44° 73° (ENE) 20:21:22 145.870
ISS 22 Nov 20:27:01 20:30:18 82° 142° (SE) 20:33:34 437.550
AO-73 22 Nov 20:39:13 20:41:28 14° 269° (W) 20:43:42 145.935
EO-88 22 Nov 20:52:32 20:56:06 61° 74° (ENE) 20:59:41 145.990 - 145.960
Oscar 11 22 Nov 20:53:28 20:55:53 15° 269° (W) 20:58:19 .
Max Valier Satellite 22 Nov 20:58:11 21:01:49 76° 258° (WSW) 21:05:29 145.860
NO-84 22 Nov 21:10:00 21:14:15 78° 39° (NE) 21:18:31 435.350 FM
LO-87 22 Nov 21:13:14 21:15:06 14° 66° (ENE) 21:16:59 145.935 - 145.965
nSIGHT-1 22 Nov 21:14:06 21:17:06 35° 336° (NNW) 21:20:06 .
STRAND 1 22 Nov 21:14:57 21:17:09 13° 302° (WNW) 21:19:20 437.568
FO-29 22 Nov 21:16:02 21:23:43 58° 291° (WNW) 21:30:55 435.910
SO-50 22 Nov 21:20:09 21:24:37 86° 123° (ESE) 21:29:09 436.795
O/OREOS (USA 219) 22 Nov 21:33:56 21:37:27 21° 55° (NE) 21:40:55 437.305
UNISAT 6 22 Nov 21:38:53 21:43:09 66° 102° (ESE) 21:47:23 437.425
TIGRISAT 22 Nov 21:42:45 21:46:59 66° 101° (E) 21:51:12 435.000
DELFI C3 22 Nov 21:50:19 21:52:31 14° 269° (W) 21:54:44 145.870
RS-15 22 Nov 21:51:51 22:02:02 29° 341° (NNW) 22:12:00 29.354- 29.394
ISS 22 Nov 22:04:22 22:07:04 23° 343° (NNW) 22:09:48 437.550
PRISM 22 Nov 22:05:52 22:09:51 42° 99° (E) 22:13:47 437.425
ESTCUBE 1 22 Nov 22:19:02 22:23:27 64° 74° (ENE) 22:27:54 437.505/2401.250
VELOX 1 22 Nov 22:33:33 22:36:13 16° 63° (ENE) 22:38:54 145.980
EO-79 22 Nov 22:42:29 22:44:02 12° 90° (E) 22:45:34 145.935-145.965
LO-87 22 Nov 22:44:44 22:48:09 40° 262° (W) 22:51:35 145.935 - 145.965
NANOSAT C BR1 22 Nov 22:44:56 22:46:00 11° 89° (E) 22:47:04 145.865
NO-84 22 Nov 22:48:28 22:51:10 16° 236° (SW) 22:53:51 435.350 FM
nSIGHT-1 22 Nov 22:51:48 22:54:00 17° 355° (N) 22:56:11 .
POLYITAN 1 22 Nov 22:57:12 23:00:03 17° 93° (E) 23:02:51 437.675
SO-50 22 Nov 23:02:56 23:05:42 16° 323° (NW) 23:08:30 436.795
FO-29 22 Nov 23:03:36 23:07:03 14° 311° (NW) 23:10:27 435.910
AIST 2D 22 Nov 23:09:41 23:13:13 82° 102° (ESE) 23:16:45 435.315
O/OREOS (USA 219) 22 Nov 23:12:45 23:17:03 42° 253° (WSW) 23:21:18 437.305
PCSat 22 Nov 23:13:01 23:18:05 42° 113° (ESE) 23:23:11 145.827
SPROUT 22 Nov 23:14:56 23:19:10 61° 74° (ENE) 23:23:24 437.525
DX 1 22 Nov 23:15:51 23:16:06 10° 59° (ENE) 23:16:20 434.975-435.025
UNISAT 6 22 Nov 23:17:32 23:19:18 12° 298° (WNW) 23:21:03 437.425
QB50P2 22 Nov 23:19:53 23:23:45 34° 97° (E) 23:27:35 145.880/145.840
TIGRISAT 22 Nov 23:21:24 23:23:08 12° 299° (WNW) 23:24:51 435.000
PRISM 22 Nov 23:42:00 23:44:47 18° 296° (WNW) 23:47:33 437.425
ISS 22 Nov 23:42:07 23:44:23 17° 4° (N) 23:46:38 437.550
UKube-1 22 Nov 23:51:30 23:54:01 15° 62° (ENE) 23:56:31 .
ESTCUBE 1 22 Nov 23:58:44 00:00:41 13° 271° (W) 00:02:38 437.505/2401.250
50 SAT 23 Nov 00:00:21 00:03:00 24° 70° (ENE) 00:05:41 437.505
DUCHIFAT 1 23 Nov 00:06:15 00:10:26 81° 103° (ESE) 00:14:35 145.980
VELOX 1 23 Nov 00:07:51 00:12:12 55° 260° (W) 00:16:35 145.980
RS-15 23 Nov 00:09:51 00:19:49 28° 17° (NNE) 00:29:23 29.354- 29.394
EO-79 23 Nov 00:16:01 00:20:10 60° 286° (WNW) 00:24:17 145.935-145.965
NANOSAT C BR1 23 Nov 00:17:58 00:22:07 65° 286° (WNW) 00:26:14 145.865
nSIGHT-1 23 Nov 00:28:28 00:31:03 22° 16° (NNE) 00:33:38 .
POLYITAN 1 23 Nov 00:32:03 00:35:59 40° 289° (WNW) 00:39:53 437.675
Oscar 19 23 Nov 00:46:22 00:50:52 30° 96° (E) 00:55:22 437.125/150
DX 1 23 Nov 00:47:10 00:51:33 89° 250° (WSW) 00:55:58 434.975-435.025
BUGSAT 1 23 Nov 00:51:23 00:55:23 60° 101° (ESE) 00:59:20 437.445
SPROUT 23 Nov 00:53:43 00:55:26 12° 270° (W) 00:57:09 437.525
QB50P2 23 Nov 00:56:09 00:59:19 21° 294° (WNW) 01:02:28 145.880/145.840
PCSat 23 Nov 00:56:47 01:01:35 31° 311° (NW) 01:06:25 145.827
BEESAT 3 23 Nov 00:58:39 01:00:54 15° 110° (ESE) 01:03:10 437.485
ISS 23 Nov 01:18:31 01:21:33 34° 24° (NNE) 01:24:34 437.550
UKube-1 23 Nov 01:25:20 01:29:35 55° 260° (W) 01:33:50 .
Gurwin Techsat 1B 23 Nov 01:26:29 01:31:41 50° 100° (E) 01:36:49 435.225
BEESAT 23 Nov 01:28:43 01:32:32 25° 65° (ENE) 01:36:22 436.000
50 SAT 23 Nov 01:32:54 01:35:04 17° 266° (W) 01:37:15 437.505
MOZHAYETS 4 23 Nov 01:33:30 01:37:32 32° 69° (ENE) 01:41:35
ITUPSAT 1 23 Nov 01:39:22 01:43:30 30° 67° (ENE) 01:47:39 437.325
DUCHIFAT 1 23 Nov 01:45:20 01:45:26 10° 300° (WNW) 01:45:32 145.980
M-CUBED/EXP-1 PRIME 23 Nov 01:50:46 01:53:53 18° 97° (E) 01:57:01 437.505
CUBESAT XI-V 23 Nov 01:52:34 01:54:33 13° 60° (ENE) 01:56:32 437.345
nSIGHT-1 23 Nov 02:04:25 02:07:37 88° 218° (SW) 02:10:48 .
AO-7 23 Nov 02:07:39 02:13:46 22° 92° (E) 02:19:52 .
BEESAT 2 23 Nov 02:13:30 02:16:53 26° 114° (ESE) 02:20:17 435.950
RS-15 23 Nov 02:23:37 02:35:28 61° 48° (NE) 02:46:37 29.354- 29.394
Oscar 19 23 Nov 02:25:32 02:30:11 35° 293° (WNW) 02:34:51 437.125/150
BUGSAT 1 23 Nov 02:28:37 02:30:13 12° 298° (WNW) 02:31:48 437.445
BEESAT 3 23 Nov 02:34:06 02:38:00 52° 307° (NW) 02:41:57 437.485
AO-85 23 Nov 02:38:33 02:41:07 17° 111° (ESE) 02:43:44 145.980
ITAMSAT 1 23 Nov 02:43:29 02:47:29 22° 93° (E) 02:51:25 435.822/435.867
ISS 23 Nov 02:55:00 02:58:03 36° 221° (SW) 03:01:03 437.550
BEESAT 23 Nov 03:05:39 03:10:05 38° 262° (W) 03:14:33 436.000
Gurwin Techsat 1B 23 Nov 03:07:11 03:11:16 23° 297° (WNW) 03:15:20 435.225
MOZHAYETS 4 23 Nov 03:10:53 03:14:41 26° 265° (W) 03:18:30
KKS-1 23 Nov 03:11:49 03:15:01 20° 64° (ENE) 03:18:13 437.445
ITUPSAT 1 23 Nov 03:17:03 03:21:15 30° 264° (W) 03:25:29 437.325
M-CUBED/EXP-1 PRIME 23 Nov 03:24:01 03:28:28 53° 293° (WNW) 03:32:59 437.505
CUBESAT XI-V 23 Nov 03:26:41 03:31:16 76° 257° (WSW) 03:35:55 437.345
STARS 23 Nov 03:31:35 03:33:35 13° 61° (ENE) 03:35:35 437.465
nSIGHT-1 23 Nov 03:42:46 03:43:21 10° 230° (SW) 03:43:56 .
BEESAT 2 23 Nov 03:50:54 03:54:30 31° 312° (NW) 03:58:09 435.950
AO-7 23 Nov 03:59:00 04:07:23 82° 290° (WNW) 04:15:44 .
DOVE 4 23 Nov 04:10:10 04:14:35 28° 93° (E) 04:18:47 437.250
SO-50 23 Nov 04:11:08 04:14:05 16° 38° (NE) 04:17:02 436.795
AO-85 23 Nov 04:17:23 04:21:07 42° 310° (NW) 04:25:01 145.980
ITAMSAT 1 23 Nov 04:22:10 04:27:09 48° 290° (WNW) 04:32:07 435.822/435.867
RS-15 23 Nov 04:36:45 04:47:26 43° 252° (WSW) 04:57:39 29.354- 29.394
YUBILEINY 23 Nov 04:43:23 04:51:47 54° 90° (E) 05:00:16 435.215
KKS-1 23 Nov 04:46:58 04:51:14 44° 261° (W) 04:55:33 437.445
XW-2C 23 Nov 04:50:15 04:51:02 10° 90° (E) 04:51:49 145.795 - 145.815
LilacSat-2 23 Nov 04:53:55 04:55:45 13° 91° (E) 04:57:37 437.200
XW-2F 23 Nov 04:58:10 04:59:49 12° 91° (E) 05:01:27 145.980 - 146.000
STARS 23 Nov 05:04:55 05:09:20 70° 258° (WSW) 05:13:46 437.465
STRAND 1 23 Nov 05:13:03 05:16:33 19° 62° (ENE) 05:20:03 437.568
KAITUO 1B 23 Nov 05:21:28 05:24:09 18° 93° (E) 05:26:48 145.475/437.950
HO-68 23 Nov 05:40:42 05:45:31 19° 90° (E) 05:50:18 435.675
CUTE 1.7 + AOD 2 23 Nov 05:40:49 05:41:40 10° 88° (E) 05:42:32 437.475
XW-2D 23 Nov 05:41:09 05:44:50 45° 99° (E) 05:48:31 145.860 - 145.880
FO-29 23 Nov 05:46:19 05:50:25 16° 52° (NE) 05:54:42 435.910
DOVE 4 23 Nov 05:47:35 05:52:16 36° 292° (WNW) 05:56:45 437.250
SO-50 23 Nov 05:50:30 05:55:10 88° 243° (WSW) 05:59:53 436.795
AO-7 23 Nov 05:53:15 05:58:56 21° 311° (NW) 06:04:37 .
XW-2B 23 Nov 05:55:59 05:59:47 67° 101° (E) 06:03:35 145.730 - 145.750
NUDT-PHONESAT 23 Nov 06:01:33 06:05:12 53° 100° (E) 06:08:50 437.300
SEEDS 23 Nov 06:06:10 06:08:01 12° 90° (E) 06:09:51 437.485
CUTE-I 23 Nov 06:09:01 06:14:22 65° 102° (ESE) 06:19:40 437.470
XW-2C 23 Nov 06:21:47 06:25:32 56° 286° (WNW) 06:29:17 145.795 - 145.815
LilacSat-2 23 Nov 06:26:35 06:30:16 45° 287° (WNW) 06:33:57 437.200
XW-2F 23 Nov 06:30:30 06:34:09 47° 287° (WNW) 06:37:49 145.980 - 146.000
YUBILEINY 23 Nov 06:41:06 06:48:54 35° 291° (WNW) 06:56:49 435.215
STRAND 1 23 Nov 06:50:10 06:55:15 60° 259° (W) 07:00:22 437.568
XW-2A 23 Nov 06:50:48 06:52:52 15° 93° (E) 06:54:56 145.665 - 145.685
KAITUO 1B 23 Nov 06:54:48 06:58:10 31° 289° (WNW) 07:01:31 145.475/437.950
CUBEBUG 2 23 Nov 06:56:46 07:00:44 41° 98° (E) 07:04:38 437.445
CUTE 1.7 + AOD 2 23 Nov 07:13:41 07:17:57 70° 285° (WNW) 07:22:12 437.475
XW-2D 23 Nov 07:16:37 07:18:37 14° 295° (WNW) 07:20:37 145.860 - 145.880
HO-68 23 Nov 07:26:47 07:34:01 81° 288° (WNW) 07:41:10 435.675
FO-29 23 Nov 07:27:19 07:34:02 74° 72° (ENE) 07:41:35 435.910
SO-50 23 Nov 07:34:09 07:34:54 10° 253° (WSW) 07:35:39 436.795
ZACube-1 23 Nov 07:34:16 07:38:00 31° 97° (E) 07:41:45 437.345
NUDT-PHONESAT 23 Nov 07:37:15 07:38:35 12° 296° (WNW) 07:39:54 437.300
AAUSAT CUBESAT 2 23 Nov 07:39:45 07:43:55 60° 101° (E) 07:48:01 437.432
SEEDS 23 Nov 07:39:51 07:44:02 58° 286° (WNW) 07:48:12 437.485
UWE-3 23 Nov 07:48:46 07:52:56 89° 294° (WNW) 07:57:06 435.000/436.395/437.385
CUTE-I 23 Nov 07:50:16 07:53:52 19° 299° (WNW) 07:57:28 437.470
PCSat 23 Nov 07:59:51 08:05:00 41° 52° (NE) 08:10:07 145.827
XW-2A 23 Nov 08:22:40 08:25:37 28° 289° (WNW) 08:28:33 145.665 - 145.685
AO-73 23 Nov 08:23:36 08:27:45 80° 284° (WNW) 08:31:56 145.935
FALCONSAT 3 23 Nov 08:24:29 08:26:29 14° 160° (SSE) 08:28:30 435.103
CUBEBUG 2 23 Nov 08:34:18 08:37:01 17° 295° (WNW) 08:39:44 437.445
Oscar 11 23 Nov 08:37:23 08:41:44 85° 284° (WNW) 08:46:04 .
UNISAT 6 23 Nov 08:37:48 08:42:18 63° 74° (ENE) 08:46:43 437.425
TIGRISAT 23 Nov 08:41:31 08:46:00 63° 75° (ENE) 08:50:25 435.000
PRISM 23 Nov 08:55:32 08:59:15 33° 69° (ENE) 09:02:59 437.425
ZACube-1 23 Nov 09:10:54 09:14:07 22° 293° (WNW) 09:17:20 437.345
BEESAT 3 23 Nov 09:13:32 09:15:48 15° 40° (NE) 09:18:02 437.485
FO-29 23 Nov 09:14:53 09:19:52 21° 273° (W) 09:25:16 435.910
HO-68 23 Nov 09:16:16 09:20:40 18° 308° (NW) 09:25:03 435.675
AAUSAT CUBESAT 2 23 Nov 09:16:51 09:18:50 13° 297° (WNW) 09:20:50 437.432
DELFI C3 23 Nov 09:24:01 09:28:01 66° 101° (E) 09:31:58 145.870
EO-79 23 Nov 09:36:24 09:37:33 11° 61° (ENE) 09:38:43 145.935-145.965
NANOSAT C BR1 23 Nov 09:38:58 09:39:14 10° 60° (ENE) 09:39:31 145.865
PCSat 23 Nov 09:43:33 09:48:13 30° 251° (WSW) 09:52:53 145.827
AIST 2D 23 Nov 09:44:27 09:47:30 30° 71° (ENE) 09:50:35 435.315
POLYITAN 1 23 Nov 09:50:50 09:53:23 16° 64° (ENE) 09:55:55 437.675
EO-88 23 Nov 09:53:31 09:57:11 73° 102° (ESE) 10:00:49 145.990 - 145.960
Max Valier Satellite 23 Nov 10:00:42 10:04:21 60° 284° (WNW) 10:07:57 145.860
FALCONSAT 3 23 Nov 10:01:53 10:04:57 25° 175° (S) 10:08:03 435.103
LO-87 23 Nov 10:11:44 10:13:34 14° 92° (E) 10:15:24 145.935 - 145.965
ESTCUBE 1 23 Nov 10:12:24 10:14:27 13° 90° (E) 10:16:28 437.505/2401.250
QB50P2 23 Nov 10:13:01 10:16:41 29° 69° (ENE) 10:20:21 145.880/145.840
UNISAT 6 23 Nov 10:17:18 10:19:22 13° 270° (W) 10:21:26 437.425
TIGRISAT 23 Nov 10:20:59 10:23:03 13° 270° (W) 10:25:07 435.000
BEESAT 2 23 Nov 10:29:57 10:33:15 23° 45° (NE) 10:36:29 435.950
PRISM 23 Nov 10:31:25 10:34:33 21° 266° (W) 10:37:44 437.425
BEESAT 3 23 Nov 10:49:52 10:53:48 73° 239° (WSW) 10:57:40 437.485
DUCHIFAT 1 23 Nov 10:58:08 11:02:18 63° 74° (ENE) 11:06:28 145.980
DELFI C3 23 Nov 11:01:01 11:02:11 11° 298° (WNW) 11:03:20 145.870
AO-85 23 Nov 11:06:45 11:10:42 27° 46° (NE) 11:14:52 145.980
EO-79 23 Nov 11:08:27 11:12:41 76° 257° (WSW) 11:16:57 145.935-145.965
NANOSAT C BR1 23 Nov 11:10:03 11:14:17 83° 260° (W) 11:18:31 145.865
Gurwin Techsat 1B 23 Nov 11:12:11 11:14:26 13° 57° (ENE) 11:16:39 435.225
AIST 2D 23 Nov 11:18:36 11:20:44 16° 267° (W) 11:22:54 435.315
POLYITAN 1 23 Nov 11:24:38 11:28:45 50° 260° (W) 11:32:53 437.675
FALCONSAT 3 23 Nov 11:40:35 11:43:31 22° 190° (S) 11:46:28 435.103
BUGSAT 1 23 Nov 11:41:14 11:45:14 46° 72° (ENE) 11:49:13 437.445
LO-87 23 Nov 11:43:52 11:47:08 35° 288° (WNW) 11:50:22 145.935 - 145.965
ESTCUBE 1 23 Nov 11:47:09 11:51:40 64° 286° (WNW) 11:56:08 437.505/2401.250
O/OREOS (USA 219) 23 Nov 11:47:29 11:50:47 20° 101° (E) 11:54:07 437.305
QB50P2 23 Nov 11:48:56 11:52:26 25° 265° (W) 11:55:57 145.880/145.840
VELOX 1 23 Nov 11:57:17 12:01:00 25° 95° (E) 12:04:41 145.980
Oscar 19 23 Nov 12:03:47 12:08:40 47° 70° (ENE) 12:13:33 437.125/150
BEESAT 2 23 Nov 12:07:20 12:11:05 38° 243° (WSW) 12:14:46 435.950
SPROUT 23 Nov 12:35:18 12:39:33 76° 284° (WNW) 12:43:46 437.525
DX 1 23 Nov 12:35:55 12:38:22 15° 91° (E) 12:40:50 434.975-435.025
DUCHIFAT 1 23 Nov 12:36:58 12:38:20 11° 270° (W) 12:39:43 145.980
M-CUBED/EXP-1 PRIME 23 Nov 12:37:14 12:39:57 20° 59° (ENE) 12:42:49 437.505
AO-85 23 Nov 12:46:44 12:51:17 46° 242° (WSW) 12:56:08 145.980
Gurwin Techsat 1B 23 Nov 12:48:13 12:53:32 85° 75° (ENE) 12:58:54 435.225
50 SAT 23 Nov 12:48:40 12:50:56 18° 95° (E) 12:53:10 437.505
AO-7 23 Nov 13:07:19 13:14:33 35° 57° (ENE) 13:21:49 .
UKube-1 23 Nov 13:11:56 13:15:20 22° 95° (E) 13:18:42 .
BUGSAT 1 23 Nov 13:18:18 13:20:48 15° 268° (W) 13:23:18 437.445
FALCONSAT 3 23 Nov 13:21:43 13:21:54 10° 205° (SSW) 13:22:05 435.103
O/OREOS (USA 219) 23 Nov 13:25:29 13:29:52 43° 298° (WNW) 13:34:17 437.305
VELOX 1 23 Nov 13:33:30 13:37:26 31° 292° (WNW) 13:41:21 145.980
Oscar 19 23 Nov 13:44:19 13:48:12 22° 267° (W) 13:52:06 437.125/150
ITAMSAT 1 23 Nov 14:01:48 14:06:34 37° 68° (ENE) 14:11:22 435.822/435.867
NO-84 23 Nov 14:02:04 14:05:34 56° 135° (SE) 14:09:24 435.350 FM
DX 1 23 Nov 14:10:35 14:14:52 53° 288° (WNW) 14:19:06 434.975-435.025
M-CUBED/EXP-1 PRIME 23 Nov 14:10:51 14:14:06 32° 258° (WSW) 14:17:38 437.505
50 SAT 23 Nov 14:20:24 14:22:58 22° 291° (WNW) 14:25:31 437.505
Gurwin Techsat 1B 23 Nov 14:32:09 14:34:09 12° 272° (W) 14:36:10 435.225
UKube-1 23 Nov 14:47:29 14:51:24 34° 291° (WNW) 14:55:18 .
YUBILEINY 23 Nov 14:52:50 15:00:12 28° 66° (ENE) 15:07:28 435.215
AO-7 23 Nov 14:58:50 15:06:56 58° 257° (WSW) 15:15:08 .
MOZHAYETS 4 23 Nov 15:03:54 15:08:28 67° 101° (E) 15:13:01
BEESAT 23 Nov 15:04:27 15:09:04 49° 100° (E) 15:13:39 436.000
DOVE 4 23 Nov 15:15:28 15:19:56 31° 67° (ENE) 15:24:33 437.250
ITUPSAT 1 23 Nov 15:15:51 15:20:35 63° 102° (ESE) 15:25:17 437.325
CUBESAT XI-V 23 Nov 15:22:43 15:26:37 25° 94° (E) 15:30:31 437.345
NO-84 23 Nov 15:39:53 15:43:10 27° 335° (NNW) 15:46:38 435.350 FM
ITAMSAT 1 23 Nov 15:41:35 15:46:05 29° 264° (W) 15:50:36 435.822/435.867
CUTE-I 23 Nov 15:54:13 15:57:30 17° 59° (ENE) 16:00:47 437.470
HO-68 23 Nov 16:11:37 16:16:00 17° 52° (NE) 16:20:22 435.675
XW-2D 23 Nov 16:23:14 16:26:17 24° 69° (ENE) 16:29:20 145.860 - 145.880
KKS-1 23 Nov 16:37:02 16:41:02 31° 97° (E) 16:44:59 437.445
XW-2B 23 Nov 16:37:45 16:41:08 34° 71° (ENE) 16:44:33 145.730 - 145.750
NUDT-PHONESAT 23 Nov 16:41:19 16:44:21 25° 70° (ENE) 16:47:25 437.300
MOZHAYETS 4 23 Nov 16:42:44 16:45:04 14° 298° (WNW) 16:47:23
BEESAT 23 Nov 16:43:05 16:46:29 20° 297° (WNW) 16:49:51 436.000
RS-15 23 Nov 16:48:15 16:58:39 34° 104° (ESE) 17:09:01 29.354- 29.394
YUBILEINY 23 Nov 16:48:57 16:57:43 68° 267° (W) 17:06:25 435.215
DOVE 4 23 Nov 16:52:54 16:57:30 34° 265° (W) 17:02:17 437.250
STARS 23 Nov 16:54:13 16:57:22 19° 93° (E) 17:00:31 437.465
ITUPSAT 1 23 Nov 16:55:03 16:57:54 16° 299° (WNW) 17:00:45 437.325
CUBESAT XI-V 23 Nov 16:59:46 17:04:01 34° 291° (WNW) 17:08:15 437.345
SEEDS 23 Nov 17:00:24 17:00:43 10° 61° (ENE) 17:01:03 437.485
XW-2C 23 Nov 17:03:09 17:06:52 73° 76° (ENE) 17:10:36 145.795 - 145.815
LilacSat-2 23 Nov 17:08:30 17:12:15 88° 258° (WSW) 17:16:03 437.200
XW-2F 23 Nov 17:11:18 17:15:00 86° 77° (ENE) 17:18:45 145.980 - 146.000
NO-84 23 Nov 17:19:18 17:21:37 15° 356° (N) 17:24:01 435.350 FM
CUTE-I 23 Nov 17:31:33 17:36:54 74° 257° (WSW) 17:42:18 437.470
KAITUO 1B 23 Nov 17:34:32 17:38:10 62° 259° (W) 17:41:50 145.475/437.950
CUBEBUG 2 23 Nov 17:55:00 17:59:14 40° 71° (ENE) 18:03:22 437.445
HO-68 23 Nov 17:55:27 18:02:38 81° 72° (ENE) 18:09:52 435.675
XW-2D 23 Nov 17:57:22 18:00:22 23° 265° (W) 18:03:24 145.860 - 145.880
CUTE 1.7 + AOD 2 23 Nov 18:06:29 18:10:41 88° 69° (ENE) 18:14:55 437.475
XW-2B 23 Nov 18:13:01 18:15:25 16° 268° (W) 18:17:50 145.730 - 145.750
KKS-1 23 Nov 18:13:46 18:17:27 26° 294° (WNW) 18:21:06 437.445
NUDT-PHONESAT 23 Nov 18:15:24 18:18:10 20° 266° (W) 18:20:58 437.300
STARS 23 Nov 18:29:45 18:33:52 40° 290° (WNW) 18:37:56 437.465
AAUSAT CUBESAT 2 23 Nov 18:30:09 18:34:02 41° 72° (ENE) 18:37:57 437.432
ZACube-1 23 Nov 18:30:41 18:34:21 28° 69° (ENE) 18:37:57 437.345
SEEDS 23 Nov 18:31:34 18:35:44 80° 260° (W) 18:39:57 437.485
